Location: D�rnast
(49.6426°N, 11.9755°E)
Time: 01:42:28
(UTC+00:00)

ISS - Visible Passes

Search period start: 20 April 2021 00:00
Search period end: 30 April 2021 00:00
Orbit: 418 x 421 km, 51.6° (Epoch: 19 April)

Date Brightness Start Highest point End Pass type
(mag) Time Alt. Az. Time Alt. Az. Time Alt. Az.
27 Apr -1.5 03:02:01 10° S 03:04:22 18° SE 03:06:43 10° E visible
28 Apr -1.2 02:15:53 10° SSE 02:17:11 12° SE 02:18:30 10° ESE visible
29 Apr -2.7 03:02:56 10° SW 03:06:05 37° SSE 03:09:14 10° E visible
